Wind_Speed
31 31 30 29 27 27 25 24 23 21 20 18 16 15 14 14 13 12 11 12 13 14 15 15 15 14 14 14 14 15 15 15 16 15 14 15 15 15 15 14 14 14 14 15
32 31 31 30 29 28 27 25 23 21 19 18 17 16 15 15 14 13 13 14 15 15 16 16 16 16 16 16 16 16 16 16 16 16 15 15 16 15 15 16 15 15 15 15
33 33 33 33 30 29 28 26 24 22 19 18 17 17 16 16 16 15 14 15 15 17 18 18 17 17 17 18 18 18 18 18 18 17 16 16 16 16 16 16 16 16 16 16
33 34 36 34 32 31 29 28 26 24 22 20 19 18 18 17 17 17 17 17 18 19 19 19 19 20 19 19 19 20 19 18 18 18 18 17 17 17 17 17 17 17 17 17
34 35 36 36 34 33 32 30 28 26 24 22 21 20 19 18 18 18 19 19 20 21 20 20 21 21 21 20 20 20 20 19 19 19 19 19 19 19 19 18 18 18 18 18
35 35 36 35 35 34 33 32 30 28 26 25 23 22 20 19 20 20 21 21 21 22 22 22 23 22 22 22 22 22 21 20 20 21 21 20 20 20 19 19 20 20 20 19
36 36 35 34 34 33 34 32 31 30 28 27 26 24 22 22 23 23 23 23 24 24 25 25 25 24 24 24 24 24 22 20 21 22 22 21 22 22 22 22 22 22 21 21
38 37 36 34 34 34 34 33 32 31 30 29 28 26 26 25 25 26 26 26 27 27 27 26 26 26 25 25 25 24 24 23 23 23 23 23 23 23 24 24 24 23 22 22
39 38 37 36 35 35 35 34 34 33 32 31 30 29 28 28 27 27 28 28 29 28 28 28 27 27 27 26 25 25 24 24 24 24 24 25 24 24 24 25 25 24 23 23
41 40 38 37 36 35 35 35 35 34 34 33 32 31 31 30 30 30 30 30 31 30 29 30 29 29 29 27 26 26 25 26 26 26 26 26 25 25 25 25 25 24 24 24
42 41 40 39 38 36 35 35 34 35 35 35 34 33 34 34 33 32 32 32 31 30 31 30 29 28 28 28 28 27 27 27 27 27 28 26 25 26 26 26 26 26 25 25
43 41 40 39 38 37 36 35 34 33 34 34 35 35 35 35 35 35 34 33 32 31 31 31 30 30 29 29 29 28 28 28 28 28 28 27 26 26 27 27 27 27 26 26
42 41 41 40 38 37 37 36 34 33 33 34 34 35 36 36 36 35 35 33 32 32 32 32 31 30 29 28 28 28 28 28 27 28 27 27 27 27 27 27 26 26 27 27
41 40 40 39 38 37 36 35 34 34 34 34 35 35 36 36 36 35 35 34 33 32 31 31 31 30 29 29 29 29 29 28 28 28 28 28 28 27 27 27 26 26 27 26
40 39 38 38 38 37 36 35 35 35 34 34 34 34 34 34 34 34 34 33 33 32 31 31 31 30 30 30 29 29 29 29 28 28 28 28 28 28 27 27 27 27 27 26
41 39 38 37 37 36 35 35 34 33 33 33 34 34 34 34 34 34 33 33 32 32 32 32 31 31 31 30 30 30 30 29 29 29 28 28 28 28 28 28 28 27 27 27
40 40 38 37 36 36 36 36 35 34 32 32 33 34 34 34 34 33 33 32 31 31 31 31 31 31 31 30 30 30 30 29 29 29 29 29 28 28 28 29 28 27 27 28
38 38 38 36 35 35 35 34 33 33 33 33 33 33 33 33 32 31 31 31 30 30 30 30 30 30 30 30 31 30 30 30 29 29 29 29 29 29 28 28 27 27 27 27
37 36 37 37 36 34 33 32 32 33 34 34 33 33 33 33 33 32 31 30 29 29 29 30 30 30 30 31 31 31 31 30 30 29 29 29 29 29 29 28 28 27 26 27
35 35 34 34 34 34 34 33 33 34 34 35 34 34 33 32 32 32 31 31 30 30 30 30 30 31 31 31 31 31 31 30 30 29 29 29 29 29 27 27 27 26 26 27
32 33 33 33 33 33 33 33 33 32 31 31 30 30 30 31 31 30 30 30 30 30 30 30 30 30 30 30 30 30 30 30 30 29 28 28 28 27 27 27 27 27 27 27
30 30 30 31 31 31 31 32 31 31 30 29 29 29 29 29 29 29 29 30 29 29 29 30 30 30 30 29 29 29 29 29 28 28 28 27 27 27 27 27 27 27 27 27
28 28 27 28 29 29 29 29 29 29 29 28 28 28 28 28 28 28 28 28 28 28 29 29 29 28 28 28 28 28 28 28 27 27 27 26 26 26 26 26 27 27 28 28
26 26 26 26 26 26 27 28 28 27 26 26 26 26 26 26 26 27 27 27 27 27 28 27 27 27 27 27 27 27 27 27 26 26 26 26 26 26 26 26 27 27 27 27
23 24 24 25 25 24 25 25 25 25 25 24 25 25 26 25 25 25 25 25 26 27 27 27 26 26 26 26 26 26 26 26 26 26 26 26 26 26 26 26 26 27 26 26
22 22 23 23 23 23 23 24 24 24 24 24 24 24 24 24 24 23 24 25 25 25 25 25 25 25 25 25 25 25 25 25 25 25 25 25 25 25 25 26 25 25 26 25
20 20 21 21 22 22 22 22 22 22 22 22 23 23 22 22 22 22 23 23 23 23 24 24 23 23 23 23 23 23 23 23 24 24 24 24 24 24 25 25 25 25 26 25
Wind_Direction
224 225 228 233 236 238 241 246 250 253 256 259 259 262 268 277 285 293 304 314 322 328 332 334 334 332 329 328 328 328 328 329 330 330 327 327 328 327 325 321 316 314 311 309
224 224 227 231 234 237 240 244 249 253 256 258 256 259 264 272 280 286 298 307 315 321 326 328 328 327 325 322 320 321 321 322 323 325 325 324 325 329 329 324 319 316 317 314
227 225 227 229 232 236 240 244 248 252 255 257 258 259 265 270 276 281 291 301 307 313 317 320 319 318 317 317 318 318 319 319 318 319 319 320 321 324 324 323 320 317 316 317
229 227 228 231 232 236 241 245 248 251 254 257 259 261 265 268 271 278 287 295 300 305 309 311 312 313 312 313 313 315 314 314 313 314 313 313 315 319 319 318 318 317 314 314
229 230 231 232 233 236 240 244 248 252 254 256 259 261 263 268 273 280 285 290 294 299 302 305 306 308 309 310 308 309 310 309 311 311 311 311 310 312 315 316 316 316 313 312
232 232 234 235 235 237 240 243 246 251 254 255 259 261 263 266 272 279 283 286 290 294 296 298 300 302 305 305 306 306 304 304 305 307 309 310 311 311 312 312 312 313 312 311
234 235 237 237 237 238 241 244 247 250 252 254 257 261 260 264 269 276 279 283 288 291 293 295 296 298 300 301 300 301 302 301 302 303 304 306 308 308 309 310 309 309 310 309
236 237 239 240 241 241 244 246 249 251 252 254 255 257 260 263 267 272 277 282 287 288 289 293 295 296 297 299 300 300 301 302 303 305 304 303 305 305 305 307 307 306 306 308
236 239 241 242 244 245 246 248 250 250 251 253 254 257 259 262 266 271 276 281 284 286 288 291 292 293 295 297 298 299 301 300 300 302 305 305 304 304 305 306 306 304 304 305
238 240 241 243 245 247 248 250 250 250 252 254 256 258 261 264 267 271 275 279 281 283 285 288 289 291 293 294 295 297 298 298 300 301 303 302 303 302 302 302 304 304 303 304
239 241 243 245 246 248 249 250 250 250 252 253 254 257 261 265 268 269 272 276 279 280 282 285 288 290 292 292 292 294 296 297 299 302 303 301 300 299 299 299 299 300 301 301
240 241 244 245 247 247 247 248 249 250 251 251 254 258 261 263 267 270 270 272 275 278 280 281 285 286 288 289 290 293 295 297 299 301 301 300 298 297 297 298 298 298 299 299
239 241 244 245 246 247 247 246 247 248 249 250 252 255 259 263 267 269 271 272 273 275 277 280 283 285 286 288 289 291 293 295 297 299 299 298 298 298 297 297 297 298 300 301
238 241 243 245 247 247 247 248 248 247 248 250 252 255 259 261 264 269 271 270 272 274 277 280 282 283 285 285 286 289 291 292 294 295 296 298 297 297 298 296 296 297 298 301
238 240 242 245 245 246 248 249 249 248 246 249 252 255 258 261 265 269 269 268 271 274 277 279 281 282 283 284 285 287 289 291 292 294 295 296 297 296 297 296 296 296 297 300
237 240 243 245 246 247 249 250 249 248 249 250 252 255 260 262 266 269 269 270 272 273 274 276 278 280 281 282 284 285 287 288 290 293 294 295 296 296 296 296 294 294 296 298
238 241 242 244 247 249 250 249 250 251 252 255 255 256 259 262 266 268 269 270 271 271 272 274 275 278 280 281 283 284 285 287 289 291 293 294 295 296 296 295 293 292 294 297
238 239 242 245 248 250 250 251 252 254 256 257 257 257 259 262 265 267 269 270 271 272 273 274 275 277 279 281 283 283 284 286 288 290 292 294 294 293 295 295 293 292 293 296
240 241 242 245 247 248 249 251 254 256 259 259 258 259 262 263 264 266 267 269 270 272 273 274 275 277 278 280 282 283 284 285 287 289 291 292 293 293 293 293 292 292 295 297
241 243 244 245 246 249 252 253 255 258 262 260 259 261 261 261 262 264 265 267 268 270 272 273 275 277 278 279 281 282 283 285 286 287 289 290 290 291 291 290 290 292 294 296
240 242 243 245 248 251 253 254 256 260 259 258 259 259 259 261 262 263 265 266 268 270 271 272 274 276 277 278 279 281 282 284 284 285 287 288 289 288 287 288 290 292 294 296
240 242 243 245 248 251 252 253 255 257 258 258 258 260 261 262 263 264 265 266 267 269 270 271 273 275 277 277 278 279 281 282 282 284 285 286 287 287 288 289 290 292 293 295
239 241 243 246 250 251 251 253 255 257 256 257 258 260 262 263 264 263 263 265 266 267 269 272 274 276 277 277 278 278 279 280 282 283 284 284 285 287 288 289 290 291 293 294
239 242 244 247 249 250 250 251 253 254 255 256 258 260 260 260 261 262 263 263 265 267 270 271 273 274 276 276 277 277 279 280 282 283 283 284 285 287 288 289 290 292 294 295
239 241 244 245 246 247 249 250 251 253 256 257 258 258 258 259 261 262 262 264 266 268 270 271 271 273 275 276 276 277 279 281 282 281 282 283 284 286 288 289 291 293 295 297
237 241 243 245 246 246 246 248 250 253 253 254 256 257 257 258 259 260 261 263 265 267 269 270 271 272 273 274 276 278 279 281 281 281 282 283 285 286 287 289 291 294 296 296
240 242 242 243 243 243 243 246 248 250 252 253 254 256 259 260 259 260 262 263 265 267 269 270 272 271 272 273 276 278 279 280 282 282 283 284 285 287 289 291 293 295 296 297
Height
5885 5889 5893 5896 5900 5902 5905 5907 5910 5912 5914 5916 5917 5918 5919 5919 5919 5919 5918 5918 5917 5915 5914 5912 5910 5909 5907 5905 5903 5901 5899 5897 5894 5892 5890 5888 5886 5884 5881 5879 5877 5875 5874 5872
5879 5884 5887 5891 5894 5897 5900 5902 5905 5907 5910 5911 5913 5914 5915 5916 5916 5916 5916 5915 5914 5913 5912 5910 5908 5906 5905 5903 5901 5899 5896 5894 5892 5890 5888 5886 5884 5882 5879 5877 5875 5873 5871 5869
5874 5878 5881 5885 5889 5892 5895 5898 5901 5903 5906 5907 5909 5910 5911 5912 5913 5912 5912 5912 5911 5910 5908 5907 5905 5904 5902 5900 5898 5895 5893 5891 5889 5887 5885 5884 5881 5879 5877 5875 5872 5871 5868 5866
5868 5872 5875 5882 5884 5887 5890 5893 5896 5898 5900 5902 5904 5906 5907 5908 5908 5909 5908 5908 5907 5906 5905 5903 5901 5899 5897 5896 5894 5892 5890 5888 5886 5884 5882 5880 5878 5876 5874 5871 5869 5867 5865 5863
5861 5865 5869 5874 5878 5881 5885 5888 5890 5893 5895 5897 5899 5901 5902 5903 5904 5904 5904 5903 5902 5901 5900 5899 5897 5896 5894 5892 5890 5888 5886 5884 5882 5880 5878 5876 5874 5872 5870 5868 5866 5863 5861 5859
5855 5858 5862 5869 5872 5875 5879 5882 5885 5887 5890 5892 5894 5896 5898 5899 5899 5899 5899 5898 5898 5896 5895 5894 5893 5891 5890 5888 5886 5884 5881 5879 5878 5876 5874 5872 5870 5868 5866 5864 5861 5859 5856 5854
5847 5852 5856 5861 5865 5869 5873 5876 5879 5881 5884 5886 5888 5891 5893 5893 5893 5893 5893 5893 5892 5891 5890 5889 5888 5887 5885 5883 5882 5879 5876 5873 5872 5871 5869 5868 5866 5864 5861 5859 5857 5854 5851 5849
5840 5845 5851 5854 5858 5863 5866 5869 5872 5874 5877 5879 5882 5884 5885 5886 5887 5887 5887 5887 5887 5885 5884 5883 5882 5881 5879 5878 5876 5874 5872 5870 5868 5866 5864 5862 5860 5858 5856 5854 5851 5849 5846 5844
5834 5840 5844 5847 5851 5854 5858 5861 5864 5867 5870 5872 5874 5876 5878 5879 5879 5880 5881 5881 5880 5879 5878 5877 5876 5875 5873 5872 5870 5868 5867 5865 5863 5861 5859 5857 5854 5852 5850 5848 5845 5843 5841 5839
5826 5831 5836 5840 5843 5847 5850 5853 5856 5859 5862 5864 5867 5868 5870 5871 5872 5873 5873 5873 5873 5872 5872 5871 5869 5868 5867 5865 5864 5862 5861 5859 5857 5855 5853 5850 5848 5846 5844 5842 5840 5838 5835 5833
5818 5823 5827 5831 5835 5839 5842 5845 5848 5851 5854 5856 5859 5860 5862 5863 5863 5864 5864 5865 5865 5865 5864 5863 5863 5861 5860 5859 5857 5856 5854 5853 5851 5848 5846 5843 5841 5840 5838 5836 5834 5832 5829 5826
5810 5815 5819 5823 5827 5830 5833 5836 5839 5842 5845 5848 5850 5852 5854 5855 5856 5856 5856 5856 5856 5857 5857 5856 5855 5854 5853 5852 5850 5849 5848 5846 5844 5842 5839 5837 5835 5833 5831 5829 5827 5824 5822 5820
5802 5806 5810 5814 5818 5821 5825 5828 5831 5834 5837 5839 5841 5844 5845 5846 5847 5847 5848 5848 5848 5848 5848 5848 5847 5847 5846 5844 5843 5842 5841 5839 5837 5835 5832 5830 5828 5826 5824 5821 5819 5817 5815 5813
5793 5797 5802 5805 5809 5813 5816 5819 5822 5825 5828 5830 5832 5835 5836 5837 5838 5839 5839 5839 5839 5839 5839 5839 5839 5839 5838 5837 5836 5835 5833 5831 5830 5828 5826 5823 5821 5819 5817 5815 5813 5810 5808 5805
5785 5789 5793 5797 5801 5804 5807 5810 5813 5815 5818 5821 5824 5826 5827 5828 5829 5830 5830 5830 5830 5830 5831 5831 5831 5831 5830 5829 5828 5827 5826 5824 5822 5820 5818 5816 5814 5812 5810 5807 5805 5803 5800 5798
5777 5781 5785 5788 5792 5795 5799 5802 5804 5807 5809 5812 5815 5817 5818 5819 5820 5820 5821 5821 5822 5822 5822 5823 5822 5822 5822 5821 5820 5819 5818 5816 5815 5813 5811 5809 5807 5804 5802 5800 5798 5795 5793 5791
5768 5772 5776 5780 5784 5787 5790 5793 5795 5798 5801 5803 5805 5807 5809 5810 5811 5811 5812 5812 5812 5813 5814 5814 5814 5814 5813 5812 5811 5811 5809 5808 5807 5805 5803 5801 5799 5796 5794 5792 5790 5788 5785 5783
5759 5763 5768 5772 5775 5779 5782 5784 5787 5789 5792 5794 5796 5797 5799 5800 5801 5802 5803 5803 5803 5804 5804 5805 5805 5805 5804 5804 5803 5802 5801 5799 5798 5797 5795 5793 5791 5789 5786 5784 5782 5780 5778 5776
5751 5755 5760 5763 5767 5770 5773 5776 5778 5781 5783 5785 5787 5788 5789 5790 5791 5792 5793 5794 5794 5795 5795 5796 5796 5796 5795 5794 5794 5793 5792 5790 5789 5788 5786 5784 5782 5780 5778 5776 5774 5772 5770 5768
5744 5748 5751 5755 5758 5762 5765 5767 5770 5772 5773 5775 5776 5778 5779 5780 5781 5782 5784 5785 5786 5786 5787 5787 5787 5787 5786 5786 5785 5784 5783 5782 5780 5779 5778 5776 5774 5772 5770 5768 5766 5765 5763 5760
5737 5741 5744 5747 5751 5754 5756 5759 5761 5763 5764 5766 5767 5769 5770 5771 5772 5773 5774 5776 5777 5777 5777 5778 5778 5777 5777 5777 5776 5775 5774 5773 5772 5770 5769 5768 5766 5764 5763 5761 5759 5757 5755 5752
5730 5733 5737 5740 5743 5746 5748 5750 5752 5754 5756 5758 5759 5760 5762 5763 5764 5765 5766 5767 5767 5768 5768 5769 5768 5768 5768 5767 5767 5766 5765 5764 5763 5762 5761 5760 5758 5757 5755 5753 5751 5749 5747 5745
5723 5727 5730 5733 5736 5738 5740 5742 5744 5746 5748 5749 5750 5752 5753 5754 5755 5756 5757 5758 5758 5759 5759 5759 5759 5759 5759 5758 5758 5757 5756 5756 5755 5754 5753 5752 5750 5749 5747 5745 5743 5741 5739 5737
5717 5720 5723 5726 5728 5730 5732 5735 5737 5739 5740 5742 5743 5744 5745 5746 5747 5748 5748 5749 5750 5750 5751 5751 5750 5750 5750 5750 5749 5749 5748 5747 5747 5746 5745 5744 5742 5741 5739 5737 5735 5733 5731 5729
5711 5714 5716 5719 5721 5723 5725 5727 5729 5731 5733 5734 5735 5737 5738 5739 5739 5740 5740 5741 5742 5742 5742 5742 5742 5742 5742 5742 5741 5741 5740 5739 5739 5738 5737 5736 5734 5733 5731 5729 5728 5725 5723 5721
5706 5708 5710 5712 5714 5716 5718 5721 5722 5724 5726 5727 5728 5729 5730 5731 5732 5733 5733 5734 5734 5735 5735 5735 5734 5734 5734 5734 5734 5733 5732 5732 5731 5730 5729 5728 5726 5725 5723 5722 5720 5718 5716 5713
5700 5702 5704 5706 5708 5710 5712 5714 5716 5717 5719 5720 5721 5722 5723 5724 5725 5726 5726 5727 5727 5727 5727 5727 5727 5727 5727 5727 5726 5726 5725 5724 5724 5723 5721 5720 5719 5717 5716 5714 5712 5710 5708 5706